Location: Saint-Restitut
(44.3351°N, 4.7915°E)
Time: 01:31:45
(UTC+00:00)

Cosmos 468 Rocket - Pass Details

Date: 03 February 2023
Orbit: 744 x 778 km, 74.0° (Epoch: 27 March)

Event Time Altitude Azimuth Distance (km) Brightness Sun altitude
Rises 18:00:42 0° 340° (NNW) 3,218 7.3 -12.5°
Reaches altitude 10° 18:03:05 10° 342° (NNW) 2,285 6.6 -12.9°
Maximum altitude 18:08:16 74° 68° (ENE) 781 3.9 -13.8°
Drops below altitude 10° 18:13:22 10° 154° (SSE) 2,254 6.3 -14.7°
Sets 18:15:42 0° 156° (SSE) 3,172 7.0 -15.1°
